Thomson Majesty — 9HA2188 — position and weather

sailwx.info

Track history (hours):
 
Tides and Currents Weather Stations Pressure Air Temp Water Temp Dewpoint Dewpoint Depression Visibility Wind Speed Wind Dir Waves Ship Positions

Thomson Majesty

Last reported at 2017-Aug-17 01:59 UTC. Time now 2017-Aug-17 02:07 UTC.
Position N 38°15' E 011°43'.

Length 207 m; draft 6.2 m.

Type: Ship. MMSI: 248124000.

Date/timePositionNaut miles runAvg speedWind from/ knotsBaromVisibWave heightAir tempDewpointWater temp
2017-Aug-17 01:59N 38°15' E 011°43'816.6
2017-Aug-17 01:30N 38°16' E 011°34'816.5
2017-Aug-17 01:00N 38°17' E 011°23'816.4
2017-Aug-17 00:30N 38°18' E 011°13'816.5
2017-Aug-17 00:00N 38°19' E 011°02'817.0
2017-Aug-16 23:31N 38°20' E 010°52'917.2
2017-Aug-16 22:59N 38°21' E 010°40'816.9
2017-Aug-16 22:30N 38°22' E 010°30'816.8
2017-Aug-16 22:00N 38°23' E 010°19'917.0
2017-Aug-16 21:30N 38°24' E 010°08'916.8
2017-Aug-16 20:59N 38°25' E 009°57'817.2
2017-Aug-16 20:31N 38°26' E 009°47'917.3
2017-Aug-16 20:01N 38°27' E 009°36'917.2
2017-Aug-16 19:31N 38°28' E 009°25'816.9
2017-Aug-16 19:01N 38°29' E 009°14'816.8
2017-Aug-16 18:30N 38°30' E 009°04'816.8
2017-Aug-16 18:00N 38°31' E 008°53'917.2
2017-Aug-16 17:30N 38°32' E 008°42'917.0
2017-Aug-16 17:00N 38°33' E 008°31'817.1
2017-Aug-16 16:30N 38°34' E 008°20'917.6
2017-Aug-16 15:59N 38°35' E 008°09'1417.6
2017-Aug-16 15:13N 38°37' E 007°52'417.7
2017-Aug-16 15:00N 38°38' E 007°47'817.3
2017-Aug-16 14:30N 38°39' E 007°36'2717.1
2017-Aug-16 12:55N 38°42' E 007°01'717.1
2017-Aug-16 12:30N 38°43' E 006°53'917.1
2017-Aug-16 12:00N 38°44' E 006°41'817.0
2017-Aug-16 11:30N 38°45' E 006°31'917.1
2017-Aug-16 10:58N 38°46' E 006°19'817.0
2017-Aug-16 10:29N 38°47' E 006°09'916.9
2017-Aug-16 09:58N 38°48' E 005°57'816.8
2017-Aug-16 09:31N 38°49' E 005°48'816.9
2017-Aug-16 09:00N 38°50' E 005°37'917.3
2017-Aug-16 08:30N 38°51' E 005°26'816.8
2017-Aug-16 08:01N 38°52' E 005°15'1317.0
2017-Aug-16 07:15N 38°53' E 004°59'417.1
2017-Aug-16 07:00N 38°54' E 004°53'917.1
2017-Aug-16 06:30N 38°55' E 004°42'817.1
2017-Aug-16 06:00N 38°56' E 004°32'917.1
2017-Aug-16 05:31N 38°57' E 004°21'917.2
2017-Aug-16 05:00N 38°58' E 004°10'917.1
2017-Aug-16 04:30N 38°59' E 003°59'917.1
2017-Aug-16 04:00N 38°60' E 003°48'817.0
2017-Aug-16 03:30N 39°01' E 003°37'816.8
2017-Aug-16 03:00N 39°02' E 003°26'816.9
2017-Aug-16 02:30N 39°03' E 003°15'917.0
2017-Aug-16 02:00N 39°04' E 003°05'917.1
2017-Aug-16 01:30N 39°05' E 002°54'917.1
2017-Aug-16 01:00N 39°11' E 002°47'917.4
2017-Aug-16 00:30N 39°18' E 002°40'816.7
2017-Aug-16 00:00N 39°26' E 002°38'713.6
2017-Aug-15 23:30N 39°33' E 002°38'0 0.8
2017-Aug-15 23:00N 39°33' E 002°38'0 0.0
2017-Aug-15 22:30N 39°33' E 002°38'0 0.0
2017-Aug-15 22:00N 39°33' E 002°38'0 0.0
2017-Aug-15 21:30N 39°33' E 002°38'0 0.0
2017-Aug-15 21:00N 39°33' E 002°38'0 0.0
2017-Aug-15 20:30N 39°33' E 002°38'0 0.0
2017-Aug-15 20:00N 39°33' E 002°38'0 0.0
2017-Aug-15 19:30N 39°33' E 002°38'0 0.0
2017-Aug-15 19:00N 39°33' E 002°38'0 0.0
2017-Aug-15 18:30N 39°33' E 002°38'0 0.0
2017-Aug-15 18:00N 39°33' E 002°38'0 0.0
2017-Aug-15 17:30N 39°33' E 002°38'0 0.0
2017-Aug-15 17:00N 39°33' E 002°38'0 0.0
2017-Aug-15 16:30N 39°33' E 002°38'0 0.0
2017-Aug-15 16:00N 39°33' E 002°38'0 0.0
2017-Aug-15 15:30N 39°33' E 002°38'0 0.0
2017-Aug-15 15:00N 39°33' E 002°38'0 0.0
2017-Aug-15 14:24N 39°33' E 002°38'0 0.0
2017-Aug-15 14:00N 39°33' E 002°38'0 0.0
2017-Aug-15 13:30N 39°33' E 002°38'0 0.0
2017-Aug-15 13:00N 39°33' E 002°38'0 0.0
2017-Aug-15 12:30N 39°33' E 002°38'0 0.0
2017-Aug-15 12:00N 39°33' E 002°38'0 0.0
2017-Aug-15 11:30N 39°33' E 002°38'0 0.0
2017-Aug-15 11:00N 39°33' E 002°38'0 0.0
2017-Aug-15 10:30N 39°33' E 002°38'0 0.0
2017-Aug-15 10:00N 39°33' E 002°38'0 0.0
2017-Aug-15 09:30N 39°33' E 002°38'0 0.0
2017-Aug-15 09:00N 39°33' E 002°38'0 0.0
2017-Aug-15 08:30N 39°33' E 002°38'0 0.0
2017-Aug-15 08:00N 39°33' E 002°38'0 0.0
2017-Aug-15 07:30N 39°33' E 002°38'0 0.0
2017-Aug-15 07:00N 39°33' E 002°38'0 0.0
2017-Aug-15 06:30N 39°33' E 002°38'0 0.0
2017-Aug-15 06:00N 39°33' E 002°38'0 0.0
2017-Aug-15 05:30N 39°33' E 002°38'0 0.0
2017-Aug-15 05:00N 39°33' E 002°38'0 0.0
2017-Aug-15 04:30N 39°33' E 002°38'0 0.0
2017-Aug-15 04:00N 39°33' E 002°38'0 0.0
2017-Aug-15 03:30N 39°33' E 002°38'1 1.5
2017-Aug-15 03:00N 39°32' E 002°39'815.5
2017-Aug-15 02:30N 39°26' E 002°32'713.3
2017-Aug-15 02:00N 39°26' E 002°24'612.5
2017-Aug-15 01:30N 39°26' E 002°16'612.5
2017-Aug-15 01:00N 39°26' E 002°07'612.6
2017-Aug-15 00:30N 39°26' E 001°59'612.6
2017-Aug-15 00:00N 39°26' E 001°51'612.6
2017-Aug-14 23:30N 39°26' E 001°43'612.6
2017-Aug-14 23:00N 39°26' E 001°35'612.6
2017-Aug-14 22:30N 39°26' E 001°27'713.1
2017-Aug-14 22:00N 39°26' E 001°18'713.3
2017-Aug-14 21:30N 39°25' E 001°09'613.2
2017-Aug-14 21:00N 39°25' E 001°01'3412.7
2017-Aug-14 18:22N 39°25' E 000°17'512.6
2017-Aug-14 17:57N 39°25' E 000°11'812.8
2017-Aug-14 17:18N 39°25' W 000°00'38 2.5
2017-Aug-14 01:47N 38°50' E 000°20'512.8
2017-Aug-14 01:24N 38°46' E 000°24'512.5
2017-Aug-14 01:00N 38°42' E 000°27'2513.1
2017-Aug-13 23:04N 38°21' E 000°10'1912.7
2017-Aug-13 21:35N 38°05' W 000°04'212.6
2017-Aug-13 21:25N 38°04' W 000°05'612.8
2017-Aug-13 20:56N 37°59' W 000°10'612.7
2017-Aug-13 20:30N 37°54' W 000°13'612.6
2017-Aug-13 20:00N 37°49' W 000°18'612.8
2017-Aug-13 19:30N 37°43' W 000°22'612.8
2017-Aug-13 19:00N 37°38' W 000°27'612.4
2017-Aug-13 18:30N 37°33' W 000°32'815.2
2017-Aug-13 18:00N 37°31' W 000°41'715.0
2017-Aug-13 17:30N 37°31' W 000°50'8 0.7
2017-Aug-13 05:31N 37°36' W 000°59'0 0.0
2017-Aug-13 05:30N 37°36' W 000°59'2 3.9
2017-Aug-13 05:00N 37°34' W 000°60'815.1
2017-Aug-13 04:30N 37°28' W 001°06'20615.5
2017-Aug-12 15:11N 36°07' W 005°03'317.6
2017-Aug-12 15:00N 36°07' W 005°07'816.9
2017-Aug-12 14:31N 36°05' W 005°17'510.8
2017-Aug-12 14:00N 36°09' W 005°22'0 0.6
2017-Aug-12 13:30N 36°09' W 005°22'0 0.0
2017-Aug-12 13:00N 36°09' W 005°22'0 0.0
2017-Aug-12 12:30N 36°09' W 005°22'0 0.0
2017-Aug-12 12:00N 36°09' W 005°22'0 0.0
2017-Aug-12 11:30N 36°09' W 005°22'0 0.0
2017-Aug-12 11:00N 36°09' W 005°22'0 0.0
2017-Aug-12 10:30N 36°09' W 005°22'0 0.0
2017-Aug-12 09:57N 36°09' W 005°22'0 0.0
2017-Aug-12 09:27N 36°09' W 005°22'0 0.0
2017-Aug-12 09:00N 36°09' W 005°22'0 0.0
2017-Aug-12 08:30N 36°09' W 005°22'0 0.0
2017-Aug-12 08:00N 36°09' W 005°22'0 0.0
2017-Aug-12 07:27N 36°09' W 005°22'0 0.0
2017-Aug-12 07:00N 36°09' W 005°22'0 0.0
2017-Aug-12 06:30N 36°09' W 005°22'0 0.0
2017-Aug-12 05:57N 36°09' W 005°22'0 0.3
2017-Aug-12 05:30N 36°09' W 005°22'1 2.5
2017-Aug-12 05:00N 36°08' W 005°23'611.9
2017-Aug-12 04:30N 36°03' W 005°20'816.1
2017-Aug-12 04:00N 35°58' W 005°28'1315.9
2017-Aug-12 03:10N 35°56' W 005°44'414.9
2017-Aug-12 02:53N 35°55' W 005°49'615.4
2017-Aug-12 02:29N 35°54' W 005°57'715.3
2017-Aug-12 02:00N 35°53' W 006°06'815.4
2017-Aug-12 01:30N 35°52' W 006°16'14116.5
2017-Aug-11 16:58N 33°46' W 007°34'8 0.8
2017-Aug-11 05:58N 33°38' W 007°34'1415.9
2017-Aug-11 05:04N 33°52' W 007°34'116.9
2017-Aug-11 05:00N 33°54' W 007°34'916.7
2017-Aug-11 04:29N 34°02' W 007°33'816.7
2017-Aug-11 04:00N 34°10' W 007°30'1016.8
2017-Aug-11 03:23N 34°20' W 007°26'616.7
2017-Aug-11 03:00N 34°26' W 007°24'816.6
2017-Aug-11 02:30N 34°34' W 007°20'816.5
2017-Aug-11 02:00N 34°41' W 007°17'815.7
2017-Aug-11 01:30N 34°49' W 007°14'612.8
2017-Aug-11 01:00N 34°55' W 007°12'713.2
2017-Aug-11 00:30N 35°01' W 007°09'713.0
2017-Aug-11 00:00N 35°07' W 007°07'613.0
2017-Aug-10 23:30N 35°13' W 007°04'612.7
2017-Aug-10 23:00N 35°20' W 007°02'612.8
2017-Aug-10 22:30N 35°26' W 006°59'713.0
2017-Aug-10 22:00N 35°32' W 006°57'1512.8
2017-Aug-10 20:49N 35°46' W 006°51'61 3.3
2017-Aug-10 02:01N 35°58' W 005°37'017.3
2017-Aug-10 02:00N 35°58' W 005°37'816.5
2017-Aug-10 01:30N 35°60' W 005°27'714.8
2017-Aug-10 01:00N 36°02' W 005°18'714.6
2017-Aug-10 00:30N 36°04' W 005°10'20216.0
2017-Aug-09 11:53N 37°01' W 001°09'717.3
2017-Aug-09 11:29N 37°06' W 001°02'917.2
2017-Aug-09 10:59N 37°11' W 000°53'817.3
2017-Aug-09 10:30N 37°16' W 000°45'1117.2
2017-Aug-09 09:54N 37°22' W 000°34'616.4
2017-Aug-09 09:30N 37°25' W 000°27'612.3
2017-Aug-09 09:00N 37°29' W 000°21'713.2
2017-Aug-09 08:30N 37°33' W 000°14'917.3
2017-Aug-09 08:00N 37°38' W 000°06'8017.3
2017-Aug-09 03:24N 38°25' E 001°16'2317.6
2017-Aug-09 02:05N 38°39' E 001°40'218.0
2017-Aug-09 02:00N 38°40' E 001°41'918.0
2017-Aug-09 01:30N 38°47' E 001°49'917.7
2017-Aug-09 01:00N 38°53' E 001°57'917.5
2017-Aug-09 00:30N 38°59' E 002°04'917.6
2017-Aug-09 00:00N 39°06' E 002°12'917.9
2017-Aug-08 23:30N 39°13' E 002°20'918.1
2017-Aug-08 23:00N 39°19' E 002°28'918.1
2017-Aug-08 22:30N 39°26' E 002°35'814.9
2017-Aug-08 22:00N 39°33' E 002°38'0 0.9
2017-Aug-08 21:30N 39°33' E 002°38'0 0.0
2017-Aug-08 21:00N 39°33' E 002°38'0 0.0
2017-Aug-08 20:30N 39°33' E 002°38'0 0.0
2017-Aug-08 20:00N 39°33' E 002°38'0 0.0
2017-Aug-08 19:30N 39°33' E 002°38'0 0.0
2017-Aug-08 19:00N 39°33' E 002°38'0 0.0
2017-Aug-08 18:30N 39°33' E 002°38'0 0.0
2017-Aug-08 18:00N 39°33' E 002°38'0 0.0
2017-Aug-08 17:30N 39°33' E 002°38'0 0.0
2017-Aug-08 17:00N 39°33' E 002°38'0 0.0
2017-Aug-08 16:30N 39°33' E 002°38'0 0.0
2017-Aug-08 16:00N 39°33' E 002°38'0 0.0
2017-Aug-08 15:30N 39°33' E 002°38'0 0.0
2017-Aug-08 15:00N 39°33' E 002°38'0 0.0
2017-Aug-08 14:30N 39°33' E 002°38'0 0.0
2017-Aug-08 14:00N 39°33' E 002°38'0 0.0
2017-Aug-08 13:30N 39°33' E 002°38'0 0.0
2017-Aug-08 13:00N 39°33' E 002°38'0 0.0
2017-Aug-08 12:30N 39°33' E 002°38'0 0.0
2017-Aug-08 12:00N 39°33' E 002°38'0 0.0
2017-Aug-08 11:30N 39°33' E 002°38'0 0.0
2017-Aug-08 11:00N 39°33' E 002°38'0 0.0
2017-Aug-08 10:30N 39°33' E 002°38'0 0.0
2017-Aug-08 10:00N 39°33' E 002°38'0 0.0
2017-Aug-08 09:30N 39°33' E 002°38'0 0.0
2017-Aug-08 09:00N 39°33' E 002°38'0 0.0
2017-Aug-08 08:30N 39°33' E 002°38'0 0.0
2017-Aug-08 07:54N 39°33' E 002°38'0 0.0
2017-Aug-08 07:30N 39°33' E 002°38'0 0.0
2017-Aug-08 07:00N 39°33' E 002°38'0 0.0
2017-Aug-08 06:30N 39°33' E 002°38'0 0.0
2017-Aug-08 06:00N 39°33' E 002°38'0 0.0
2017-Aug-08 05:30N 39°33' E 002°38'0 0.0
2017-Aug-08 05:00N 39°33' E 002°38'0 0.0
2017-Aug-08 04:30N 39°33' E 002°38'0 0.0
2017-Aug-08 04:00N 39°33' E 002°38'0 0.0
2017-Aug-08 03:30N 39°33' E 002°38'1 1.4
2017-Aug-08 03:00N 39°33' E 002°39'713.7
2017-Aug-08 02:30N 39°26' E 002°40'510.7
2017-Aug-08 02:00N 39°21' E 002°41'510.5
2017-Aug-08 01:30N 39°16' E 002°44'510.6
2017-Aug-08 01:00N 39°11' E 002°47'510.6
2017-Aug-08 00:30N 39°06' E 002°50'510.3
2017-Aug-08 00:00N 39°05' E 002°56'510.3
2017-Aug-07 23:30N 39°06' E 003°03'510.2
2017-Aug-07 23:00N 39°09' E 003°08'510.3
2017-Aug-07 22:30N 39°12' E 003°14'510.4
2017-Aug-07 22:00N 39°15' E 003°19'510.4
2017-Aug-07 21:30N 39°18' E 003°25'510.5
2017-Aug-07 21:00N 39°21' E 003°31'510.6
2017-Aug-07 20:30N 39°23' E 003°36'510.5
2017-Aug-07 20:00N 39°26' E 003°42'510.5
2017-Aug-07 19:30N 39°29' E 003°48'510.7
2017-Aug-07 19:00N 39°32' E 003°54'611.5
2017-Aug-07 18:30N 39°35' E 003°60'611.7
2017-Aug-07 18:00N 39°38' E 004°06'611.8
2017-Aug-07 17:30N 39°42' E 004°13'612.0
2017-Aug-07 17:00N 39°45' E 004°19'9 5.4
2017-Aug-07 15:23N 39°53' E 004°16'0 0.0
2017-Aug-07 14:20N 39°53' E 004°16'0 0.0
2017-Aug-07 13:35N 39°53' E 004°16'0 0.0
2017-Aug-07 13:17N 39°53' E 004°16'3 0.3
2017-Aug-07 05:35N 39°52' E 004°18'1 8.2
2017-Aug-07 05:29N 39°52' E 004°20'816.6
2017-Aug-07 05:00N 39°55' E 004°29'  
Track history (hours):
 
Tides and Currents Weather Stations Pressure Air Temp Water Temp Dewpoint Dewpoint Depression Visibility Wind Speed Wind Dir Waves Ship Positions

Thomson Majesty

Last reported at 2017-Aug-17 01:59 UTC. Time now 2017-Aug-17 02:07 UTC.
Position N 38°15' E 011°43'.

Length 207 m; draft 6.2 m.

Type: Ship. MMSI: 248124000.

Date/timePositionNaut miles runAvg speedWind from/ knotsBaromVisibWave heightAir tempDewpointWater temp
2017-Aug-17 01:59N 38°15' E 011°43'816.6
2017-Aug-17 01:30N 38°16' E 011°34'816.5
2017-Aug-17 01:00N 38°17' E 011°23'816.4
2017-Aug-17 00:30N 38°18' E 011°13'816.5
2017-Aug-17 00:00N 38°19' E 011°02'817.0
2017-Aug-16 23:31N 38°20' E 010°52'917.2
2017-Aug-16 22:59N 38°21' E 010°40'816.9
2017-Aug-16 22:30N 38°22' E 010°30'816.8
2017-Aug-16 22:00N 38°23' E 010°19'917.0
2017-Aug-16 21:30N 38°24' E 010°08'916.8
2017-Aug-16 20:59N 38°25' E 009°57'817.2
2017-Aug-16 20:31N 38°26' E 009°47'917.3
2017-Aug-16 20:01N 38°27' E 009°36'917.2
2017-Aug-16 19:31N 38°28' E 009°25'816.9
2017-Aug-16 19:01N 38°29' E 009°14'816.8
2017-Aug-16 18:30N 38°30' E 009°04'816.8
2017-Aug-16 18:00N 38°31' E 008°53'917.2
2017-Aug-16 17:30N 38°32' E 008°42'917.0
2017-Aug-16 17:00N 38°33' E 008°31'817.1
2017-Aug-16 16:30N 38°34' E 008°20'917.6
2017-Aug-16 15:59N 38°35' E 008°09'1417.6
2017-Aug-16 15:13N 38°37' E 007°52'417.7
2017-Aug-16 15:00N 38°38' E 007°47'817.3
2017-Aug-16 14:30N 38°39' E 007°36'2717.1
2017-Aug-16 12:55N 38°42' E 007°01'717.1
2017-Aug-16 12:30N 38°43' E 006°53'917.1
2017-Aug-16 12:00N 38°44' E 006°41'817.0
2017-Aug-16 11:30N 38°45' E 006°31'917.1
2017-Aug-16 10:58N 38°46' E 006°19'817.0
2017-Aug-16 10:29N 38°47' E 006°09'916.9
2017-Aug-16 09:58N 38°48' E 005°57'816.8
2017-Aug-16 09:31N 38°49' E 005°48'816.9
2017-Aug-16 09:00N 38°50' E 005°37'917.3
2017-Aug-16 08:30N 38°51' E 005°26'816.8
2017-Aug-16 08:01N 38°52' E 005°15'1317.0
2017-Aug-16 07:15N 38°53' E 004°59'417.1
2017-Aug-16 07:00N 38°54' E 004°53'917.1
2017-Aug-16 06:30N 38°55' E 004°42'817.1
2017-Aug-16 06:00N 38°56' E 004°32'917.1
2017-Aug-16 05:31N 38°57' E 004°21'917.2
2017-Aug-16 05:00N 38°58' E 004°10'917.1
2017-Aug-16 04:30N 38°59' E 003°59'917.1
2017-Aug-16 04:00N 38°60' E 003°48'817.0
2017-Aug-16 03:30N 39°01' E 003°37'816.8
2017-Aug-16 03:00N 39°02' E 003°26'816.9
2017-Aug-16 02:30N 39°03' E 003°15'917.0
2017-Aug-16 02:00N 39°04' E 003°05'917.1
2017-Aug-16 01:30N 39°05' E 002°54'917.1
2017-Aug-16 01:00N 39°11' E 002°47'917.4
2017-Aug-16 00:30N 39°18' E 002°40'816.7
2017-Aug-16 00:00N 39°26' E 002°38'713.6
2017-Aug-15 23:30N 39°33' E 002°38'0 0.8
2017-Aug-15 23:00N 39°33' E 002°38'0 0.0
2017-Aug-15 22:30N 39°33' E 002°38'0 0.0
2017-Aug-15 22:00N 39°33' E 002°38'0 0.0
2017-Aug-15 21:30N 39°33' E 002°38'0 0.0
2017-Aug-15 21:00N 39°33' E 002°38'0 0.0
2017-Aug-15 20:30N 39°33' E 002°38'0 0.0
2017-Aug-15 20:00N 39°33' E 002°38'0 0.0
2017-Aug-15 19:30N 39°33' E 002°38'0 0.0
2017-Aug-15 19:00N 39°33' E 002°38'0 0.0
2017-Aug-15 18:30N 39°33' E 002°38'0 0.0
2017-Aug-15 18:00N 39°33' E 002°38'0 0.0
2017-Aug-15 17:30N 39°33' E 002°38'0 0.0
2017-Aug-15 17:00N 39°33' E 002°38'0 0.0
2017-Aug-15 16:30N 39°33' E 002°38'0 0.0
2017-Aug-15 16:00N 39°33' E 002°38'0 0.0
2017-Aug-15 15:30N 39°33' E 002°38'0 0.0
2017-Aug-15 15:00N 39°33' E 002°38'0 0.0
2017-Aug-15 14:24N 39°33' E 002°38'0 0.0
2017-Aug-15 14:00N 39°33' E 002°38'0 0.0
2017-Aug-15 13:30N 39°33' E 002°38'0 0.0
2017-Aug-15 13:00N 39°33' E 002°38'0 0.0
2017-Aug-15 12:30N 39°33' E 002°38'0 0.0
2017-Aug-15 12:00N 39°33' E 002°38'0 0.0
2017-Aug-15 11:30N 39°33' E 002°38'0 0.0
2017-Aug-15 11:00N 39°33' E 002°38'0 0.0
2017-Aug-15 10:30N 39°33' E 002°38'0 0.0
2017-Aug-15 10:00N 39°33' E 002°38'0 0.0
2017-Aug-15 09:30N 39°33' E 002°38'0 0.0
2017-Aug-15 09:00N 39°33' E 002°38'0 0.0
2017-Aug-15 08:30N 39°33' E 002°38'0 0.0
2017-Aug-15 08:00N 39°33' E 002°38'0 0.0
2017-Aug-15 07:30N 39°33' E 002°38'0 0.0
2017-Aug-15 07:00N 39°33' E 002°38'0 0.0
2017-Aug-15 06:30N 39°33' E 002°38'0 0.0
2017-Aug-15 06:00N 39°33' E 002°38'0 0.0
2017-Aug-15 05:30N 39°33' E 002°38'0 0.0
2017-Aug-15 05:00N 39°33' E 002°38'0 0.0
2017-Aug-15 04:30N 39°33' E 002°38'0 0.0
2017-Aug-15 04:00N 39°33' E 002°38'0 0.0
2017-Aug-15 03:30N 39°33' E 002°38'1 1.5
2017-Aug-15 03:00N 39°32' E 002°39'815.5
2017-Aug-15 02:30N 39°26' E 002°32'713.3
2017-Aug-15 02:00N 39°26' E 002°24'612.5
2017-Aug-15 01:30N 39°26' E 002°16'612.5
2017-Aug-15 01:00N 39°26' E 002°07'612.6
2017-Aug-15 00:30N 39°26' E 001°59'612.6
2017-Aug-15 00:00N 39°26' E 001°51'612.6
2017-Aug-14 23:30N 39°26' E 001°43'612.6
2017-Aug-14 23:00N 39°26' E 001°35'612.6
2017-Aug-14 22:30N 39°26' E 001°27'713.1
2017-Aug-14 22:00N 39°26' E 001°18'713.3
2017-Aug-14 21:30N 39°25' E 001°09'613.2
2017-Aug-14 21:00N 39°25' E 001°01'3412.7
2017-Aug-14 18:22N 39°25' E 000°17'512.6
2017-Aug-14 17:57N 39°25' E 000°11'812.8
2017-Aug-14 17:18N 39°25' W 000°00'38 2.5
2017-Aug-14 01:47N 38°50' E 000°20'512.8
2017-Aug-14 01:24N 38°46' E 000°24'512.5
2017-Aug-14 01:00N 38°42' E 000°27'2513.1
2017-Aug-13 23:04N 38°21' E 000°10'1912.7
2017-Aug-13 21:35N 38°05' W 000°04'212.6
2017-Aug-13 21:25N 38°04' W 000°05'612.8
2017-Aug-13 20:56N 37°59' W 000°10'612.7
2017-Aug-13 20:30N 37°54' W 000°13'612.6
2017-Aug-13 20:00N 37°49' W 000°18'612.8
2017-Aug-13 19:30N 37°43' W 000°22'612.8
2017-Aug-13 19:00N 37°38' W 000°27'612.4
2017-Aug-13 18:30N 37°33' W 000°32'815.2
2017-Aug-13 18:00N 37°31' W 000°41'715.0
2017-Aug-13 17:30N 37°31' W 000°50'8 0.7
2017-Aug-13 05:31N 37°36' W 000°59'0 0.0
2017-Aug-13 05:30N 37°36' W 000°59'2 3.9
2017-Aug-13 05:00N 37°34' W 000°60'815.1
2017-Aug-13 04:30N 37°28' W 001°06'20615.5
2017-Aug-12 15:11N 36°07' W 005°03'317.6
2017-Aug-12 15:00N 36°07' W 005°07'816.9
2017-Aug-12 14:31N 36°05' W 005°17'510.8
2017-Aug-12 14:00N 36°09' W 005°22'0 0.6
2017-Aug-12 13:30N 36°09' W 005°22'0 0.0
2017-Aug-12 13:00N 36°09' W 005°22'0 0.0
2017-Aug-12 12:30N 36°09' W 005°22'0 0.0
2017-Aug-12 12:00N 36°09' W 005°22'0 0.0
2017-Aug-12 11:30N 36°09' W 005°22'0 0.0
2017-Aug-12 11:00N 36°09' W 005°22'0 0.0
2017-Aug-12 10:30N 36°09' W 005°22'0 0.0
2017-Aug-12 09:57N 36°09' W 005°22'0 0.0
2017-Aug-12 09:27N 36°09' W 005°22'0 0.0
2017-Aug-12 09:00N 36°09' W 005°22'0 0.0
2017-Aug-12 08:30N 36°09' W 005°22'0 0.0
2017-Aug-12 08:00N 36°09' W 005°22'0 0.0
2017-Aug-12 07:27N 36°09' W 005°22'0 0.0
2017-Aug-12 07:00N 36°09' W 005°22'0 0.0
2017-Aug-12 06:30N 36°09' W 005°22'0 0.0
2017-Aug-12 05:57N 36°09' W 005°22'0 0.3
2017-Aug-12 05:30N 36°09' W 005°22'1 2.5
2017-Aug-12 05:00N 36°08' W 005°23'611.9
2017-Aug-12 04:30N 36°03' W 005°20'816.1
2017-Aug-12 04:00N 35°58' W 005°28'1315.9
2017-Aug-12 03:10N 35°56' W 005°44'414.9
2017-Aug-12 02:53N 35°55' W 005°49'615.4
2017-Aug-12 02:29N 35°54' W 005°57'715.3
2017-Aug-12 02:00N 35°53' W 006°06'815.4
2017-Aug-12 01:30N 35°52' W 006°16'14116.5
2017-Aug-11 16:58N 33°46' W 007°34'8 0.8
2017-Aug-11 05:58N 33°38' W 007°34'1415.9
2017-Aug-11 05:04N 33°52' W 007°34'116.9
2017-Aug-11 05:00N 33°54' W 007°34'916.7
2017-Aug-11 04:29N 34°02' W 007°33'816.7
2017-Aug-11 04:00N 34°10' W 007°30'1016.8
2017-Aug-11 03:23N 34°20' W 007°26'616.7
2017-Aug-11 03:00N 34°26' W 007°24'816.6
2017-Aug-11 02:30N 34°34' W 007°20'816.5
2017-Aug-11 02:00N 34°41' W 007°17'815.7
2017-Aug-11 01:30N 34°49' W 007°14'612.8
2017-Aug-11 01:00N 34°55' W 007°12'713.2
2017-Aug-11 00:30N 35°01' W 007°09'713.0
2017-Aug-11 00:00N 35°07' W 007°07'613.0
2017-Aug-10 23:30N 35°13' W 007°04'612.7
2017-Aug-10 23:00N 35°20' W 007°02'612.8
2017-Aug-10 22:30N 35°26' W 006°59'713.0
2017-Aug-10 22:00N 35°32' W 006°57'1512.8
2017-Aug-10 20:49N 35°46' W 006°51'61 3.3
2017-Aug-10 02:01N 35°58' W 005°37'017.3
2017-Aug-10 02:00N 35°58' W 005°37'816.5
2017-Aug-10 01:30N 35°60' W 005°27'714.8
2017-Aug-10 01:00N 36°02' W 005°18'714.6
2017-Aug-10 00:30N 36°04' W 005°10'20216.0
2017-Aug-09 11:53N 37°01' W 001°09'717.3
2017-Aug-09 11:29N 37°06' W 001°02'917.2
2017-Aug-09 10:59N 37°11' W 000°53'817.3
2017-Aug-09 10:30N 37°16' W 000°45'1117.2
2017-Aug-09 09:54N 37°22' W 000°34'616.4
2017-Aug-09 09:30N 37°25' W 000°27'612.3
2017-Aug-09 09:00N 37°29' W 000°21'713.2
2017-Aug-09 08:30N 37°33' W 000°14'917.3
2017-Aug-09 08:00N 37°38' W 000°06'8017.3
2017-Aug-09 03:24N 38°25' E 001°16'2317.6
2017-Aug-09 02:05N 38°39' E 001°40'218.0
2017-Aug-09 02:00N 38°40' E 001°41'918.0
2017-Aug-09 01:30N 38°47' E 001°49'917.7
2017-Aug-09 01:00N 38°53' E 001°57'917.5
2017-Aug-09 00:30N 38°59' E 002°04'917.6
2017-Aug-09 00:00N 39°06' E 002°12'917.9
2017-Aug-08 23:30N 39°13' E 002°20'918.1
2017-Aug-08 23:00N 39°19' E 002°28'918.1
2017-Aug-08 22:30N 39°26' E 002°35'814.9
2017-Aug-08 22:00N 39°33' E 002°38'0 0.9
2017-Aug-08 21:30N 39°33' E 002°38'0 0.0
2017-Aug-08 21:00N 39°33' E 002°38'0 0.0
2017-Aug-08 20:30N 39°33' E 002°38'0 0.0
2017-Aug-08 20:00N 39°33' E 002°38'0 0.0
2017-Aug-08 19:30N 39°33' E 002°38'0 0.0
2017-Aug-08 19:00N 39°33' E 002°38'0 0.0
2017-Aug-08 18:30N 39°33' E 002°38'0 0.0
2017-Aug-08 18:00N 39°33' E 002°38'0 0.0
2017-Aug-08 17:30N 39°33' E 002°38'0 0.0
2017-Aug-08 17:00N 39°33' E 002°38'0 0.0
2017-Aug-08 16:30N 39°33' E 002°38'0 0.0
2017-Aug-08 16:00N 39°33' E 002°38'0 0.0
2017-Aug-08 15:30N 39°33' E 002°38'0 0.0
2017-Aug-08 15:00N 39°33' E 002°38'0 0.0
2017-Aug-08 14:30N 39°33' E 002°38'0 0.0
2017-Aug-08 14:00N 39°33' E 002°38'0 0.0
2017-Aug-08 13:30N 39°33' E 002°38'0 0.0
2017-Aug-08 13:00N 39°33' E 002°38'0 0.0
2017-Aug-08 12:30N 39°33' E 002°38'0 0.0
2017-Aug-08 12:00N 39°33' E 002°38'0 0.0
2017-Aug-08 11:30N 39°33' E 002°38'0 0.0
2017-Aug-08 11:00N 39°33' E 002°38'0 0.0
2017-Aug-08 10:30N 39°33' E 002°38'0 0.0
2017-Aug-08 10:00N 39°33' E 002°38'0 0.0
2017-Aug-08 09:30N 39°33' E 002°38'0 0.0
2017-Aug-08 09:00N 39°33' E 002°38'0 0.0
2017-Aug-08 08:30N 39°33' E 002°38'0 0.0
2017-Aug-08 07:54N 39°33' E 002°38'0 0.0
2017-Aug-08 07:30N 39°33' E 002°38'0 0.0
2017-Aug-08 07:00N 39°33' E 002°38'0 0.0
2017-Aug-08 06:30N 39°33' E 002°38'0 0.0
2017-Aug-08 06:00N 39°33' E 002°38'0 0.0
2017-Aug-08 05:30N 39°33' E 002°38'0 0.0
2017-Aug-08 05:00N 39°33' E 002°38'0 0.0
2017-Aug-08 04:30N 39°33' E 002°38'0 0.0
2017-Aug-08 04:00N 39°33' E 002°38'0 0.0
2017-Aug-08 03:30N 39°33' E 002°38'1 1.4
2017-Aug-08 03:00N 39°33' E 002°39'713.7
2017-Aug-08 02:30N 39°26' E 002°40'510.7
2017-Aug-08 02:00N 39°21' E 002°41'510.5
2017-Aug-08 01:30N 39°16' E 002°44'510.6
2017-Aug-08 01:00N 39°11' E 002°47'510.6
2017-Aug-08 00:30N 39°06' E 002°50'510.3
2017-Aug-08 00:00N 39°05' E 002°56'510.3
2017-Aug-07 23:30N 39°06' E 003°03'510.2
2017-Aug-07 23:00N 39°09' E 003°08'510.3
2017-Aug-07 22:30N 39°12' E 003°14'510.4
2017-Aug-07 22:00N 39°15' E 003°19'510.4
2017-Aug-07 21:30N 39°18' E 003°25'510.5
2017-Aug-07 21:00N 39°21' E 003°31'510.6
2017-Aug-07 20:30N 39°23' E 003°36'510.5
2017-Aug-07 20:00N 39°26' E 003°42'510.5
2017-Aug-07 19:30N 39°29' E 003°48'510.7
2017-Aug-07 19:00N 39°32' E 003°54'611.5
2017-Aug-07 18:30N 39°35' E 003°60'611.7
2017-Aug-07 18:00N 39°38' E 004°06'611.8
2017-Aug-07 17:30N 39°42' E 004°13'612.0
2017-Aug-07 17:00N 39°45' E 004°19'9 5.4
2017-Aug-07 15:23N 39°53' E 004°16'0 0.0
2017-Aug-07 14:20N 39°53' E 004°16'0 0.0
2017-Aug-07 13:35N 39°53' E 004°16'0 0.0
2017-Aug-07 13:17N 39°53' E 004°16'3 0.3
2017-Aug-07 05:35N 39°52' E 004°18'1 8.2
2017-Aug-07 05:29N 39°52' E 004°20'816.6
2017-Aug-07 05:00N 39°55' E 004°29'  

Dump ship's entire track history